CZ-6A DEB

Satellite information

Favourite Embed

Satellite Type and Status

DEBRISIN ORBIT

Key statistics

Satellite CZ-6A DEB at a glance.

Uptime

1129

Days in orbit

Revolutions

≈ 14.2

Per day

Orbit

SSO

Sun Synchronous Orbit

Inclination

98.8

Latest

Satellite identification and parameters

Extended collection of information and parameters for CZ-6A DEB.

Object identification

Identified? True

Debris? True

Object name: CZ-6A DEB

International designator: 2022-151AFA

Object number (NORAD): 56626

Object ID (CCSDS): 56626

Country: PEOPLES REPUBLIC OF CHINA (PRC)

Current information (Y/N): Y

RCS size: SMALL

Orbital parameters

Period: 101.168 minutes

Inclination: 98.8324 deg

SMA: 7192.093 km

Apoapsis: 819.379 km

Periapsis: 808.537 km

RAAN: 10.8244 deg

Eccentricy: 0.0007537

Argument of periapsis: 255.8382 deg

Mean anomaly: 104.1959 deg

Mean motion: 14.23376593 rev/day

Mean motion (dot): 0.00001361 rev/day2

B* drag term: 0.00061947 1/REarth

Two-line elements (TLE)

Creation date: Dec. 9, 2025, 3:16 p.m.

Reference frame: TEME

Reference center: EARTH

Epoch: Dec. 9, 2025, 7:46 a.m. UTC

TLE line 0: 0 CZ-6A DEB

TLE line 1: 1 56626U 22151AFA 25343.32418507 .00001361 00000-0 61947-3 0 9994

TLE line 2: 2 56626 98.8324 10.8244 0007537 255.8382 104.1959 14.23376593136940

Live tracking on map

Real-time ground track for satellite CZ-6A DEB.

In-orbit conjunctions

A list of the most updated potential collisions computed for object CZ-6A DEB.

Target Orbit TCA Probability of collision Miss distance Type
FENGYUN 1C DEB SSO 2025-06-02 07:16:21 0.0001249779 71.0 (m) DEBRIS
COSMOS 2251 DEB LEO 2024-12-11 08:10:51 0.0001469437 147.0 (m) DEBRIS
FENGYUN 1C DEB SSO 2024-09-26 23:59:43 0.0001000104 170.0 (m) DEBRIS

Associated space launch

Chinese satellite reported for atmospheric/ocean/environmental/spatial parameter research purposes, details TBD.

CZ-6A DEB was lifted into orbit during the mission ‘Long March 6A | Yunhai 3’, on board a Long March 6A space rocket.

The launch took place on Nov. 11, 2022, 10:52 p.m. from Launch Complex 9A.

For more information about the launch, click the button.

Launch to space Long March 6A | Yunhai 3
Long March 6A | Yunhai 3

Agency: N/A

Status: Launch Successful

Launch date: Nov. 11, 2022, 10:52 p.m. UTC

Rocket: Long March 6A

Launch pad: Launch Complex 9A

Location: Taiyuan Satellite Launch Center, People's Republic of China

...

Latest news about this satellite

There are no fresh news available about this satellite. Check back as we update our databases every day.


Newsletter sign-up

Weekly statistics, charts and insights to help you stay on top of the space industry.